Regional Weather Roundup
Issued by NWS

Home | Current Version | Previous Version | Graphics & Text | Print | Product List | Glossary On
Versions: 1 2 3 4 5 6 7 8 9 10 11 12 13 14 15 16 17 18 19 20 21 22 23 24 25 26 27 28 29 30 31 32 33 34 35 36 37 38 39 40 41 42 43 44 45 46 47 48 49 50
000
ASUS43 KLSX 191457
RWRMO

WEATHER SUMMARY FOR MISSOURI
NATIONAL WEATHER SERVICE SPRINGFIELD MO
900 AM CST FRI JAN 19 2018

NOTE: "FAIR" INDICATES FEW OR NO CLOUDS BELOW 12,000 FEET WITH NO
       SIGNIFICANT WEATHER AND/OR OBSTRUCTIONS TO VISIBILITY.
       CURRENT SKY AND/OR WEATHER CONDITIONS ARE NOT AVAILABLE FOR
       CHILLICOTHE AND FARMINGTON.

MOZ001>031-035>038-043-044-053-054-191600-
...NORTHERN AND WESTERN MISSOURI...

CITY           SKY/WX    TMP DP  RH WIND       PRES   REMARKS
KANSAS CTY INT CLOUDY    33  18  53 S17       29.92F WCI  22
LEE`S SUMMIT   CLOUDY    32  19  58 S15       29.97S WCI  22
ST JOSEPH      CLOUDY    34  23  64 S13       29.90F WCI  25
CHILLICOTHE      N/A     32  19  58 S12       29.93F WCI  23

$$
MOZ066>068-077>081-088>096-101>105-191600-
...SOUTHWEST MISSOURI...

CITY           SKY/WX    TMP DP  RH WIND       PRES   REMARKS
SPRINGFIELD    CLOUDY    32  16  51 S10G22    30.06F WCI  24
JOPLIN         CLOUDY    35  21  56 S15       30.06S WCI  25
BRANSON        MOSUNNY   37  14  38 S7        30.11F

$$
MOZ032>034-039>042-045>050-055>058-069>072-191600-
...CENTRAL MISSOURI...

CITY           SKY/WX    TMP DP  RH WIND       PRES   REMARKS
COLUMBIA       NOT AVBL
JEFFERSON CITY MIX PCPN  35  15  44 S6        30.06S
ROLLA          CLOUDY    33  13  43 S18       30.06F WCI  22
SEDALIA        CLOUDY    35  19  52 SW16G25   30.00S WCI  25
WARRENSBURG    CLOUDY    32  19  59 S13G20    30.00S WCI  22

$$
MOZ051-052-059>065-191600-
...EAST CENTRAL MISSOURI...

CITY           SKY/WX    TMP DP  RH WIND       PRES   REMARKS
ST LOUIS INTL  CLOUDY    37  15  40 SW8       30.07S

$$
MOZ072>076-082>087-097>100-106>115-191600-
...SOUTH CENTRAL AND SOUTHEAST MISSOURI...

CITY           SKY/WX    TMP DP  RH WIND       PRES   REMARKS
CAPE GIRARDEAU FAIR      24  18  77 S9        30.22S WCI  14
POPLAR BLUFF   FAIR      27  20  75 SW10      30.22S WCI  17
WEST PLAINS    CLOUDY    33  13  43 S8        30.14S WCI  26

$$



USA.gov is the U.S. government's official web portal to all federal, state and local government web resources and services.